Regional Weather Roundup
Issued by NWS Cleveland, OH

Home | Current Version | Previous Version | Graphics & Text | Print | Product List | Glossary On
Versions: 1 2 3 4 5 6 7 8 9 10 11 12 13 14 15 16 17 18 19 20 21 22 23 24 25 26 27 28 29 30 31 32 33 34 35 36 37 38 39 40 41 42 43 44 45 46 47 48 49 50
000
ASUS41 KCLE 270802
RWRCLE
OHIO REGIONAL WEATHER ROUNDUP
NATIONAL WEATHER SERVICE CLEVELAND, OH
300 AM EST MON FEB 27 2017

NOTE: "FAIR" INDICATES FEW OR NO CLOUDS BELOW 12,000 FEET WITH NO
SIGNIFICANT WEATHER AND/OR OBSTRUCTIONS TO VISIBILITY.

OHZ001>008-015>018-024>027-034-035-043-044-270900-
   NORTHWEST OHIO

CITY           SKY/WX    TMP DP  RH WIND       PRES   REMARKS
DEFIANCE       CLEAR     29  21  72 S3        30.15R
FINDLAY        CLEAR     33  22  63 S9        30.15R WCI  25
TOLEDO EXPRESS CLEAR     34  22  61 SW7       30.14R WCI  28
TOLEDO EXEC    CLEAR     34  23  64 SW7       30.15S WCI  28
LIMA           CLEAR     36  22  56 S10       30.16R
$$

OHZ009>014-019>023-028>033-038-089-270900-
   NORTHEAST OHIO

CITY           SKY/WX    TMP DP  RH WIND       PRES   REMARKS
CLE-HOPKINS    PTCLDY    38  18  44 S10       30.19S
CLE-LAKEFRONT  CLEAR     40  17  39 S14       30.17R
CUY CO. ARPT   NOT AVBL
LORAIN-ELYRIA  CLEAR     33  18  53 S8        30.17F WCI  26
ASHTABULA      CLEAR     33  18  53 SW9       30.18R WCI  25
AKRON-CANTON   PTCLDY    33  16  49 S10         N/A  WCI  25
WOOSTER        PTCLDY    32  18  56 SW6       30.19S WCI  26
MANSFIELD      CLEAR     32  19  58 S8        30.17S WCI  25
YOUNGSTOWN     PTCLDY    33  15  47 S8        30.19R WCI  26
$$

OHZ042-051>053-060>062-070>072-077>081-270900-
  SOUTHWEST OHIO

CITY           SKY/WX    TMP DP  RH WIND       PRES   REMARKS
CINC-COVINGTON CLOUDY    43  21  41 SW6       30.19R
CINC-LUNKEN    CLOUDY    38  30  73 N3        30.22R
HAMILTON       CLOUDY    40  27  59 CALM      30.20S
DAYTON         CLOUDY    41  19  41 S8        30.18S
WRIGHT-PAT AFB CLOUDY    40  20  43 S7        30.19R
DAYTON GENERAL CLOUDY    39  22  50 S6        30.18R
WILMINGTON     CLOUDY    37  25  61 S3        30.19R
$$

OHZ036-037-039>041-045>050-054>059-063>069-073>076-082>088-270900-
  CENTRAL AND SOUTHEAST OHIO

CITY           SKY/WX    TMP DP  RH WIND       PRES   REMARKS
COLUMBUS       CLOUDY    42  20  41 S7        30.21R
OSU AIRPORT    CLOUDY    40  21  46 S7        30.20R
BOLTON FIELD   NOT AVBL
RICKENBACK AFB CLOUDY    39  20  46 S9        30.21S
NEWARK         CLOUDY    36  20  52 CALM      30.21R
MARION         CLOUDY    36  22  56 S10       30.18S
LANCASTER      CLOUDY    41  21  44 S3        30.22R
ZANESVILLE     CLOUDY    34  22  61 SE5       30.22S WCI  30
NEW PHILLY     NOT AVBL
$$




USA.gov is the U.S. government's official web portal to all federal, state and local government web resources and services.